• In Germany
  • List of Countries
  • For 7 days
  • Water Temperature
  • Satellite Maps
  • Weather Map
  • Weather Widgets
  • user-avatar
    Login

    Hourly Weather Adelaide

    Today, 25 September, Monday

    Time Temperature Precipitation Wind Pressure Humidity
    00:00 +10°C° 0 mm 6 mps 753 mmHg 75%
    01:00 +10°C° 0 mm 5 mps 753 mmHg 78%
    02:00 +10°C° 0 mm 5 mps 753 mmHg 80%
    03:00 +9°C° 0 mm 5 mps 753 mmHg 83%
    04:00 +10°C° 0 mm 4 mps 753 mmHg 85%
    05:00 +10°C° 0 mm 4 mps 754 mmHg 86%
    06:00 +10°C° 0 mm 4 mps 754 mmHg 88%
    07:00 +12°C° 0 mm 3 mps 755 mmHg 80%
    08:00 +13°C° 0 mm 3 mps 755 mmHg 73%
    09:00 +16°C° 0 mm 3 mps 756 mmHg 64%
    10:00 +17°C° 0 mm 3 mps 756 mmHg 60%
    11:00 +18°C° 0 mm 3 mps 756 mmHg 56%
    12:00 +18°C° 0 mm 3 mps 756 mmHg 52%
    13:00 +18°C° 0 mm 3 mps 756 mmHg 53%
    14:00 +18°C° 0 mm 3 mps 756 mmHg 53%
    15:00 +18°C° 0 mm 3 mps 756 mmHg 56%
    16:00 +16°C° 0 mm 3 mps 756 mmHg 63%
    17:00 +14°C° 0 mm 3 mps 757 mmHg 70%
    18:00 +13°C° 0 mm 2 mps 757 mmHg 77%
    19:00 +11°C° 0 mm 3 mps 757 mmHg 80%
    20:00 +10°C° 0 mm 3 mps 758 mmHg 83%
    21:00 +10°C° 0 mm 3 mps 758 mmHg 86%
    22:00 +9°C° 0 mm 3 mps 758 mmHg 86%
    23:00 +9°C° 0 mm 3 mps 758 mmHg 87%

    Tomorrow, 26 September, Tuesday

    Time Temperature Precipitation Wind Pressure Humidity
    00:00 +9°C° 0 mm 3 mps 758 mmHg 87%
    01:00 +8°C° 0 mm 4 mps 758 mmHg 85%
    02:00 +7°C° 0 mm 4 mps 757 mmHg 84%
    03:00 +7°C° 0 mm 4 mps 757 mmHg 83%
    04:00 +7°C° 0 mm 5 mps 757 mmHg 82%
    05:00 +7°C° 0 mm 5 mps 757 mmHg 81%
    06:00 +8°C° 0 mm 6 mps 757 mmHg 80%
    07:00 +10°C° 0 mm 6 mps 757 mmHg 73%
    08:00 +13°C° 0 mm 6 mps 757 mmHg 65%
    09:00 +16°C° 0 mm 7 mps 756 mmHg 58%
    10:00 +17°C° 0 mm 6 mps 756 mmHg 53%
    11:00 +20°C° 0 mm 6 mps 755 mmHg 48%
    12:00 +22°C° 0 mm 6 mps 754 mmHg 44%
    13:00 +23°C° 0 mm 6 mps 753 mmHg 41%
    14:00 +25°C° 0 mm 5 mps 752 mmHg 39%
    15:00 +26°C° 0 mm 5 mps 751 mmHg 36%
    16:00 +25°C° 0 mm 4 mps 751 mmHg 39%
    17:00 +22°C° 0 mm 4 mps 750 mmHg 42%
    18:00 +21°C° 0 mm 3 mps 750 mmHg 45%
    19:00 +20°C° 0 mm 4 mps 750 mmHg 43%
    20:00 +20°C° 0 mm 4 mps 750 mmHg 41%
    21:00 +19°C° 0 mm 4 mps 750 mmHg 39%
    22:00 +19°C° 0 mm 4 mps 750 mmHg 45%
    23:00 +18°C° 0 mm 4 mps 750 mmHg 50%

    Day after tomorrow, 27 September, Wednesday

    Time Temperature Precipitation Wind Pressure Humidity
    00:00 +17°C° 0 mm 5 mps 750 mmHg 56%
    01:00 +18°C° 0 mm 4 mps 750 mmHg 54%
    02:00 +18°C° 0 mm 3 mps 750 mmHg 52%
    03:00 +18°C° 0 mm 3 mps 750 mmHg 50%
    04:00 +17°C° 0 mm 2 mps 750 mmHg 51%
    05:00 +17°C° 0 mm 2 mps 750 mmHg 52%
    06:00 +16°C° 0 mm 2 mps 750 mmHg 53%
    07:00 +17°C° 0 mm 3 mps 750 mmHg 51%
    08:00 +18°C° 0 mm 3 mps 750 mmHg 49%
    09:00 +19°C° 0 mm 4 mps 750 mmHg 47%
    10:00 +21°C° 0 mm 6 mps 750 mmHg 44%
    11:00 +22°C° 0 mm 8 mps 750 mmHg 41%
    12:00 +23°C° 0 mm 9 mps 749 mmHg 38%
    13:00 +22°C° 0 mm 9 mps 749 mmHg 39%
    14:00 +22°C° 0 mm 9 mps 749 mmHg 40%
    15:00 +21°C° 0 mm 9 mps 749 mmHg 41%
    16:00 +20°C° 0 mm 8 mps 749 mmHg 48%
    17:00 +17°C° 0 mm 8 mps 750 mmHg 55%
    18:00 +16°C° 0 mm 7 mps 751 mmHg 62%
    19:00 +15°C° 0.1 mm 8 mps 751 mmHg 66%
    20:00 +15°C° 0.1 mm 8 mps 752 mmHg 69%
    21:00 +13°C° 0.1 mm 9 mps 753 mmHg 72%
    22:00 +13°C° 0.1 mm 9 mps 753 mmHg 74%
    23:00 +13°C° 0.1 mm 8 mps 753 mmHg 77%

    28 September, Thursday

    Time Temperature Precipitation Wind Pressure Humidity
    00:00 +13°C° 0.1 mm 8 mps 753 mmHg 79%
    01:00 +12°C° 0 mm 7 mps 753 mmHg 81%
    02:00 +13°C° 0 mm 6 mps 753 mmHg 83%
    03:00 +11°C° 0 mm 6 mps 753 mmHg 85%
    04:00 +12°C° 0.1 mm 5 mps 754 mmHg 86%
    05:00 +12°C° 0.1 mm 5 mps 755 mmHg 86%
    06:00 +12°C° 0.1 mm 5 mps 756 mmHg 87%
    07:00 +13°C° 0 mm 5 mps 756 mmHg 79%
    08:00 +14°C° 0 mm 4 mps 757 mmHg 71%
    09:00 +15°C° 0 mm 4 mps 757 mmHg 63%
    10:00 +17°C° 0.1 mm 4 mps 757 mmHg 62%
    11:00 +17°C° 0.1 mm 4 mps 757 mmHg 60%
    12:00 +17°C° 0.1 mm 4 mps 757 mmHg 58%
    13:00 +17°C° 0.1 mm 4 mps 757 mmHg 61%
    14:00 +15°C° 0.1 mm 5 mps 757 mmHg 64%
    15:00 +15°C° 0.1 mm 5 mps 757 mmHg 66%
    16:00 +14°C° 0 mm 5 mps 757 mmHg 69%
    17:00 +13°C° 0 mm 4 mps 758 mmHg 71%
    18:00 +12°C° 0 mm 4 mps 758 mmHg 74%
    19:00 +11°C° 0 mm 4 mps 759 mmHg 75%
    20:00 +11°C° 0 mm 4 mps 759 mmHg 77%
    21:00 +10°C° 0 mm 4 mps 760 mmHg 78%
    22:00 +10°C° 0 mm 4 mps 759 mmHg 79%
    23:00 +10°C° 0 mm 4 mps 759 mmHg 80%

    29 September, Friday

    Time Temperature Precipitation Wind Pressure Humidity
    00:00 +10°C° 0 mm 4 mps 759 mmHg 81%
    01:00 +8°C° 0 mm 4 mps 759 mmHg 82%
    02:00 +8°C° 0 mm 4 mps 759 mmHg 83%
    03:00 +8°C° 0 mm 4 mps 758 mmHg 84%
    04:00 +8°C° 0 mm 4 mps 759 mmHg 85%
    05:00 +9°C° 0 mm 5 mps 759 mmHg 85%
    06:00 +9°C° 0 mm 5 mps 759 mmHg 86%
    07:00 +10°C° 0 mm 5 mps 759 mmHg 79%
    08:00 +13°C° 0 mm 5 mps 759 mmHg 72%
    09:00 +15°C° 0 mm 6 mps 759 mmHg 64%
    10:00 +15°C° 0.1 mm 6 mps 759 mmHg 62%
    11:00 +16°C° 0.1 mm 7 mps 759 mmHg 59%
    12:00 +17°C° 0.1 mm 7 mps 758 mmHg 56%
    13:00 +17°C° 0.1 mm 8 mps 758 mmHg 56%
    14:00 +17°C° 0.1 mm 8 mps 758 mmHg 57%
    15:00 +17°C° 0.1 mm 8 mps 757 mmHg 57%
    16:00 +16°C° 0.2 mm 8 mps 758 mmHg 63%
    17:00 +13°C° 0.2 mm 8 mps 759 mmHg 70%
    18:00 +12°C° 0.2 mm 8 mps 759 mmHg 77%
    19:00 +12°C° 0.1 mm 7 mps 760 mmHg 77%
    20:00 +12°C° 0.1 mm 7 mps 760 mmHg 78%
    21:00 +12°C° 0.1 mm 7 mps 761 mmHg 78%
    22:00 +11°C° 0 mm 7 mps 761 mmHg 78%
    23:00 +11°C° 0 mm 6 mps 761 mmHg 77%

    30 September, Saturday

    Time Temperature Precipitation Wind Pressure Humidity
    00:00 +10°C° 0 mm 6 mps 761 mmHg 77%
    01:00 +10°C° 0 mm 5 mps 761 mmHg 78%
    02:00 +10°C° 0 mm 5 mps 761 mmHg 78%
    03:00 +10°C° 0 mm 4 mps 762 mmHg 79%
    04:00 +10°C° 0 mm 4 mps 762 mmHg 79%
    05:00 +10°C° 0 mm 3 mps 763 mmHg 79%
    06:00 +10°C° 0 mm 3 mps 763 mmHg 79%
    07:00 +12°C° 0 mm 3 mps 764 mmHg 71%
    08:00 +13°C° 0 mm 4 mps 765 mmHg 63%
    09:00 +15°C° 0 mm 4 mps 765 mmHg 54%
    10:00 +17°C° 0 mm 4 mps 765 mmHg 51%
    11:00 +18°C° 0 mm 4 mps 765 mmHg 48%
    12:00 +18°C° 0 mm 4 mps 764 mmHg 45%
    13:00 +18°C° 0 mm 4 mps 764 mmHg 46%
    14:00 +18°C° 0 mm 4 mps 764 mmHg 47%
    15:00 +18°C° 0 mm 3 mps 764 mmHg 48%
    16:00 +16°C° 0 mm 3 mps 765 mmHg 54%
    17:00 +15°C° 0 mm 2 mps 765 mmHg 61%
    18:00 +13°C° 0 mm 2 mps 765 mmHg 67%
    19:00 +12°C° 0 mm 2 mps 766 mmHg 72%
    20:00 +10°C° 0 mm 2 mps 766 mmHg 76%
    21:00 +10°C° 0 mm 1 mps 766 mmHg 81%
    22:00 +10°C° 0 mm 1 mps 766 mmHg 82%
    23:00 +10°C° 0 mm 1 mps 766 mmHg 83%
    Show more